Вернуться в каталог

Ten-Koh

TEN-KOH

АктивенЛюбительское радиоSSO
NORAD 43677·PAYLOAD·🇯🇵 Japan

Запущен Oct 29, 2018 с Tanegashima Space Center

Loading…

Ближайшие Пролёты (ближайшие 24 часа)

TLE

СвежийSource: AMSAT

Эпоха: Sep 13, 2026, 19:05 UTC

1 43677U 18084G   26256.79556891  .00001092  00000-0  85491-4 0  9992
2 43677  98.0738  92.9082 0009469 170.8287 189.3111 15.03243105429479

Отслеживайте Ten-Koh в реальном времени с AllMySat

Download on the App Store